KB6LA Weather Reports


time (UTC)temp
F
wind
direction
speed
knots
gust
knots
rain 1hr
in
rain 24hr
in
rain mn
in
humidity
%
barometer
mb
20260904135536 65 8 1.7 1.7 0.00 0.00 0.00 85 1011.8
20260904135029 65 356 0.9 2.6 0.00 0.00 0.00 85 1011.8
20260904134529 65 343 0.9 1.7 0.00 0.00 0.00 85 1011.8
20260904133957 65 334 0.0 0.9 0.00 0.00 0.00 85 1011.4
20260904133447 65 331 0.0 1.7 0.00 0.00 0.00 85 1011.4
20260904132930 65 341 0.0 1.7 0.00 0.00 0.00 85 1011.4
20260904131838 65 352 0.9 1.7 0.00 0.00 0.00 85 1011.4
20260904130837 65 347 0.9 1.7 0.00 0.00 0.00 85 1011.4
20260904130329 65 10 1.7 1.7 0.00 0.00 0.00 84 1011.4
20260904125829 66 8 0.9 1.7 0.00 0.00 0.00 84 1011.4
20260904125257 66 346 0.0 1.7 0.00 0.00 0.00 84 1011.4
20260904124758 66 340 0.9 1.7 0.00 0.00 0.00 84 1011.4
20260904124237 66 1 0.9 1.7 0.00 0.00 0.00 85 1011.4
20260904123236 65 9 0.9 1.7 0.00 0.00 0.00 85 1011.4
20260904122203 65 346 0.9 0.9 0.00 0.00 0.00 86 1011.1
20260904121703 65 346 0.0 0.9 0.00 0.00 0.00 85 1011.1
20260904121150 65 346 0.9 0.9 0.00 0.00 0.00 85 1011.1
20260904120636 65 346 0.9 0.9 0.00 0.00 0.00 86 1011.4
20260904120129 65 346 0.9 0.9 0.00 0.00 0.00 86 1011.1
20260904115558 65 346 0.9 0.9 0.00 0.00 0.00 86 1011.1
20260904114557 65 345 0.0 1.7 0.00 0.00 0.00 86 1011.4
20260904114048 64 343 0.0 1.7 0.00 0.00 0.00 86 1011.1
20260904113548 64 338 0.9 1.7 0.00 0.00 0.00 87 1011.4
20260904113036 64 337 0.0 1.7 0.00 0.00 0.00 86 1011.1
20260904112504 64 343 0.9 1.7 0.00 0.00 0.00 87 1011.1
20260904112004 64 345 0.0 1.7 0.00 0.00 0.00 87 1011.1
20260904111504 63 353 0.9 1.7 0.00 0.00 0.00 87 1011.1
20260904110956 63 350 0.9 1.7 0.00 0.00 0.00 86 1011.1
20260904110437 64 346 0.9 1.7 0.00 0.00 0.00 86 1011.4
20260904105929 64 347 0.9 1.7 0.00 0.00 0.00 86 1011.4
20260904105429 63 346 0.9 1.7 0.00 0.00 0.00 86 1011.4
20260904104909 63 349 0.0 1.7 0.00 0.00 0.00 86 1011.4
20260904104402 63 347 0.9 1.7 0.00 0.00 0.00 86 1011.4
20260904103902 63 348 0.0 1.7 0.00 0.00 0.00 86 1011.1
20260904102847 63 347 0.9 0.9 0.00 0.00 0.00 86 1011.1
20260904102348 63 347 0.9 0.9 0.00 0.00 0.00 86 1011.1
20260904101836 63 347 0.0 1.7 0.00 0.00 0.00 86 1011.1
20260904101329 63 6 0.9 1.7 0.00 0.00 0.00 86 1011.1
20260904100758 63 324 0.9 1.7 0.00 0.00 0.00 86 1011.1
20260904100250 63 335 0.0 1.7 0.00 0.00 0.00 86 1011.1
20260904095736 63 330 0.9 0.9 0.00 0.00 0.00 86 1011.1
20260904095203 63 331 0.9 0.9 0.00 0.00 0.00 86 1011.1
20260904094703 63 334 0.9 0.9 0.00 0.00 0.00 86 1011.1
20260904094204 63 326 0.0 0.0 0.00 0.00 0.00 86 1011.1
20260904093704 63 326 0.0 0.9 0.00 0.00 0.00 86 1011.1
20260904093158 63 326 0.0 0.9 0.00 0.00 0.00 86 1011.1
20260904092657 63 326 0.9 1.7 0.00 0.00 0.00 86 1011.1
20260904091647 63 335 0.0 1.7 0.00 0.00 0.00 85 1011.1
20260904090604 63 335 0.0 0.9 0.00 0.00 0.00 85 1011.1
20260904090104 64 335 0.9 0.9 0.00 0.00 0.00 85 1011.1
20260904085550 64 335 0.9 0.9 0.00 0.00 0.00 85 1011.1
20260904085049 64 333 0.0 0.9 0.00 0.00 0.00 85 1011.1
20260904084035 64 334 0.0 0.9 0.00 0.00 0.00 85 1011.4
20260904083503 64 333 0.0 0.9 0.00 0.00 0.00 85 1011.1
20260904081950 64 332 0.9 0.9 0.00 0.00 0.00 84 1011.1
20260904081435 64 328 0.0 1.7 0.00 0.00 0.00 84 1011.1
20260904080411 64 326 0.9 1.7 0.00 0.00 0.00 83 1011.1
20260904075904 64 317 0.0 1.7 0.00 0.00 0.00 83 1011.4
20260904075404 64 339 0.9 1.7 0.00 0.00 0.00 83 1011.4
20260904074903 64 8 0.9 1.7 0.00 0.00 0.00 83 1011.4
20260904074358 64 323 0.9 0.9 0.00 0.00 0.00 83 1011.4
20260904073835 64 325 0.0 0.9 0.00 0.00 0.00 83 1011.4
20260904073329 64 326 0.0 0.9 0.00 0.00 0.00 83 1011.4
20260904072828 64 322 0.9 1.7 0.00 0.00 0.00 83 1011.4
20260904071829 64 328 0.9 1.7 0.00 0.00 0.00 83 1011.4
20260904071304 65 327 0.9 1.7 0.00 0.00 0.00 83 1011.1
20260904070758 65 326 0.9 1.7 0.00 0.00 0.00 83 1011.1
20260904070256 65 327 0.9 1.7 0.00 0.00 0.00 83 1011.1
20260904065749 65 330 0.9 1.7 0.00 0.00 0.00 83 1011.1
20260904065241 65 332 0.9 1.7 0.00 0.00 0.00 82 1011.1
20260904064736 65 333 0.0 0.9 0.00 0.00 0.00 82 1011.1
20260904064229 66 333 0.9 1.7 0.00 0.00 0.00 82 1011.4
20260904063704 66 333 1.7 1.7 0.00 0.00 0.00 82 1011.1
20260904062636 66 326 0.0 2.6 0.00 0.00 0.00 82 1011.1
20260904062129 66 350 1.7 2.6 0.00 0.00 0.00 82 1011.1
20260904061604 66 6 1.7 1.7 0.00 0.00 0.00 82 1011.1
20260904061057 66 23 1.7 1.7 0.00 0.00 0.00 82 1011.1
20260904060536 66 334 0.0 1.7 0.00 0.00 0.00 82 1011.1
20260904060027 66 324 0.9 3.5 0.00 0.00 0.00 82 1011.1
20260904054957 66 9 1.7 2.6 0.00 0.00 0.00 82 1011.1
20260904054457 66 7 1.7 2.6 0.00 0.00 0.00 83 1011.1
20260904053957 66 346 0.9 2.6 0.00 0.00 0.00 83 1011.1
20260904053457 66 331 0.9 1.7 0.00 0.00 0.00 83 1010.7
20260904052936 66 334 0.9 0.9 0.00 0.00 0.00 83 1011.1
20260904052426 66 328 0.0 0.9 0.00 0.00 0.00 83 1011.1
20260904051905 66 328 0.9 0.9 0.00 0.00 0.00 83 1011.1
20260904051357 66 328 0.0 1.7 0.00 0.00 0.00 83 1011.1
20260904050836 66 343 0.9 1.7 0.00 0.00 0.00 83 1011.1
20260904050329 66 320 0.9 0.9 0.00 0.00 0.00 83 1011.1
20260904045804 66 316 0.9 1.7 0.00 0.00 0.00 82 1011.1
20260904045306 66 318 0.0 1.7 0.00 0.00 0.00 83 1011.1
20260904044804 66 321 0.9 1.7 0.00 0.00 0.00 82 1011.1
20260904044304 66 322 0.9 0.9 0.00 0.00 0.00 82 1011.1
20260904043741 66 323 0.9 1.7 0.00 0.00 0.00 83 1011.1
20260904043236 67 324 0.0 1.7 0.00 0.00 0.00 82 1011.1
20260904042737 67 323 0.9 1.7 0.00 0.00 0.00 83 1011.1
20260904041704 67 319 0.9 1.7 0.00 0.00 0.00 83 1011.1
20260904041204 67 282 0.9 1.7 0.00 0.00 0.00 82 1010.7
20260904040702 67 240 0.9 1.7 0.00 0.00 0.00 82 1010.7
20260904040157 67 242 0.9 1.7 0.00 0.00 0.00 82 1010.7
20260904035636 67 233 1.7 1.7 0.00 0.00 0.00 82 1010.7
20260904035129 67 267 0.0 1.7 0.00 0.00 0.00 82 1010.7
20260904034604 67 249 1.7 1.7 0.00 0.00 0.00 82 1010.7
20260904032504 67 210 1.7 1.7 0.00 0.00 0.00 82 1010.4
20260904031957 67 240 1.7 2.6 0.00 0.00 0.00 82 1010.4
20260904031436 68 254 0.9 2.6 0.00 0.00 0.00 82 1010.7
20260904030930 68 249 0.9 2.6 0.00 0.00 0.00 82 1010.4
20260904030404 68 229 0.9 2.6 0.00 0.00 0.00 81 1010.4
20260904025901 68 225 1.7 3.5 0.00 0.00 0.00 81 1010.4
20260904025357 68 281 0.9 3.5 0.00 0.00 0.00 81 1010.4
20260904024829 68 267 0.9 2.6 0.00 0.00 0.00 81 1010.4
20260904023757 68 228 4.3 5.2 0.00 0.00 0.00 80 1010.4
20260904023236 68 280 1.7 6.1 0.00 0.00 0.00 80 1010.4
20260904022729 68 264 3.5 6.1 0.00 0.00 0.00 80 1010.4
20260904021138 68 279 2.6 8.7 0.00 0.00 0.00 80 1010.4
20260904020106 69 264 5.2 7.8 0.00 0.00 0.00 79 1010.4
20260904015557 69 230 6.1 7.8 0.00 0.00 0.00 78 1010.4
20260904015038 70 250 2.6 7.0 0.00 0.00 0.00 79 1010.4
20260904013537 71 301 7.8 8.7 0.00 0.00 0.00 77 1010.4
20260904013027 71 192 2.6 8.7 0.00 0.00 0.00 78 1010.4
20260904012505 71 236 5.2 7.8 0.00 0.00 0.00 77 1010.4
20260904011949 71 266 4.3 9.6 0.00 0.00 0.00 77 1010.4
20260904010950 71 250 7.8 9.6 0.00 0.00 0.00 75 1010.4
20260904010441 71 238 7.0 9.6 0.00 0.00 0.00 74 1010.4
20260904005936 72 215 4.3 11.3 0.00 0.00 0.00 72 1010.4
20260904005432 72 168 7.8 11.3 0.00 0.00 0.00 72 1010.4
20260904004914 72 247 5.2 8.7 0.00 0.00 0.00 72 1010.7
20260904004408 73 240 6.1 8.7 0.00 0.00 0.00 72 1010.7
20260904003902 73 219 4.3 11.3 0.00 0.00 0.00 72 1010.4
20260904002848 72 249 6.1 11.3 0.00 0.00 0.00 73 1010.4
20260904002342 73 228 7.8 12.2 0.00 0.00 0.00 72 1010.7
20260904001837 72 219 4.3 12.2 0.00 0.00 0.00 73 1010.7
20260904000822 73 270 4.3 12.2 0.00 0.00 0.00 72 1010.7
20260904000318 72 245 5.2 12.2 0.00 0.00 0.00 72 1010.7
20260903235809 73 250 8.7 12.2 0.00 0.00 0.00 72 1010.7
20260903234756 73 217 7.8 13.9 0.00 0.00 0.00 71 1010.7
20260903234250 73 228 3.5 13.9 0.00 0.00 0.00 72 1010.7
20260903233743 73 225 5.2 9.6 0.00 0.00 0.00 70 1010.7
20260903233237 74 253 5.2 9.6 0.00 0.00 0.00 70 1010.7
20260903232730 74 213 5.2 11.3 0.00 0.00 0.00 70 1011.1
20260903232223 73 254 3.5 13.0 0.00 0.00 0.00 71 1011.1
20260903231211 73 200 7.0 12.2 0.00 0.00 0.00 70 1011.1
20260903230704 73 277 7.0 12.2 0.00 0.00 0.00 72 1011.1
20260903230157 73 231 7.8 12.2 0.00 0.00 0.00 72 1011.1
20260903225651 74 241 8.7 12.2 0.00 0.00 0.00 71 1011.1
20260903225144 74 238 9.6 14.8 0.00 0.00 0.00 70 1011.1
20260903224639 73 225 5.2 14.8 0.00 0.00 0.00 72 1011.4
20260903224131 73 205 8.7 13.0 0.00 0.00 0.00 71 1011.1
20260903223625 73 232 7.8 13.0 0.00 0.00 0.00 71 1011.4
20260903223118 73 265 7.8 13.0 0.00 0.00 0.00 72 1011.4
20260903222612 73 237 9.6 12.2 0.00 0.00 0.00 71 1011.4
20260903222106 73 242 7.0 13.0 0.00 0.00 0.00 70 1011.4
20260903221558 73 272 7.0 13.9 0.00 0.00 0.00 71 1011.8
20260903221054 73 252 5.2 13.9 0.00 0.00 0.00 70 1011.8
20260903220546 74 220 8.7 12.2 0.00 0.00 0.00 69 1011.8
20260903220040 73 278 7.0 13.0 0.00 0.00 0.00 70 1011.8
20260903215532 73 277 7.8 13.0 0.00 0.00 0.00 69 1011.8
20260903214520 74 294 7.0 12.2 0.00 0.00 0.00 69 1011.8
20260903214012 74 228 7.8 12.2 0.00 0.00 0.00 67 1011.8
20260903213506 74 222 5.2 9.6 0.00 0.00 0.00 68 1011.8
20260903213000 74 213 6.1 12.2 0.00 0.00 0.00 67 1011.8
20260903212454 74 247 5.2 14.8 0.00 0.00 0.00 68 1011.8
20260903211947 75 235 9.6 14.8 0.00 0.00 0.00 67 1011.8
20260903211440 75 213 7.0 11.3 0.00 0.00 0.00 65 1011.8
20260903210934 75 241 4.3 11.3 0.00 0.00 0.00 67 1011.8
20260903210427 75 287 6.1 13.0 0.00 0.00 0.00 67 1011.8
20260903205920 74 246 3.5 13.0 0.00 0.00 0.00 67 1012.1
20260903205414 74 254 5.2 12.2 0.00 0.00 0.00 67 1012.1
20260903204908 74 202 7.0 12.2 0.00 0.00 0.00 68 1012.1
20260903204401 74 251 4.3 9.6 0.00 0.00 0.00 68 1012.1
20260903203348 73 256 5.2 13.0 0.00 0.00 0.00 68 1012.1
20260903202335 75 270 4.3 13.9 0.00 0.00 0.00 65 1012.1
20260903201828 74 208 5.2 13.9 0.00 0.00 0.00 67 1012.1
20260903200815 74 247 8.7 12.2 0.00 0.00 0.00 67 1012.4
20260903200309 74 277 5.2 12.2 0.00 0.00 0.00 69 1012.4
20260903195803 74 238 7.0 11.3 0.00 0.00 0.00 68 1012.4
20260903195255 74 230 7.0 11.3 0.00 0.00 0.00 68 1012.4
20260903194243 74 235 4.3 12.2 0.00 0.00 0.00 68 1012.4
20260903193737 74 194 4.3 12.2 0.00 0.00 0.00 69 1012.4
20260903193230 73 210 8.7 12.2 0.00 0.00 0.00 70 1012.8
20260903192724 74 259 8.7 12.2 0.00 0.00 0.00 69 1012.8
20260903192216 73 231 7.0 11.3 0.00 0.00 0.00 70 1012.8
20260903191710 73 220 7.8 12.2 0.00 0.00 0.00 69 1012.8
20260903191203 73 233 8.7 12.2 0.00 0.00 0.00 69 1012.8
20260903185644 74 256 7.0 11.3 0.00 0.00 0.00 68 1013.1
20260903185140 74 306 5.2 9.6 0.00 0.00 0.00 67 1013.1
20260903184125 75 218 3.5 11.3 0.00 0.00 0.00 67 1013.1
20260903183618 74 327 3.5 11.3 0.00 0.00 0.00 68 1013.1
20260903183111 74 290 3.5 9.6 0.00 0.00 0.00 69 1013.1
20260903182605 75 226 3.5 8.7 0.00 0.00 0.00 67 1013.4
20260903181552 75 299 0.0 6.1 0.00 0.00 0.00 64 1013.4
20260903181046 76 177 3.5 8.7 0.00 0.00 0.00 64 1013.4
20260903180539 75 199 7.0 8.7 0.00 0.00 0.00 63 1013.4
20260903175526 77 181 3.5 6.1 0.00 0.00 0.00 60 1013.4
20260903175020 75 203 1.7 5.2 0.00 0.00 0.00 62 1013.4
20260903174513 75 193 2.6 7.8 0.00 0.00 0.00 63 1013.4
20260903173500 74 111 2.6 7.0 0.00 0.00 0.00 65 1013.4
20260903172954 74 199 2.6 6.1 0.00 0.00 0.00 66 1013.4
20260903171434 76 161 3.5 6.1 0.00 0.00 0.00 61 1013.4
20260903170928 75 328 0.9 5.2 0.00 0.00 0.00 63 1013.4
20260903170422 75 317 2.6 6.1 0.00 0.00 0.00 62 1013.4
20260903165914 73 189 0.9 6.1 0.00 0.00 0.00 69 1013.4
20260903165408 71 256 0.0 5.2 0.00 0.00 0.00 72 1013.4
20260903164902 71 241 0.0 6.1 0.00 0.00 0.00 73 1013.4
20260903164355 71 144 3.5 3.5 0.00 0.00 0.00 72 1013.4
20260903163849 72 139 2.6 5.2 0.00 0.00 0.00 71 1013.4
20260903163342 71 12 0.9 5.2 0.00 0.00 0.00 72 1013.4
20260903162836 71 193 1.7 5.2 0.00 0.00 0.00 72 1013.4
20260903162329 71 190 3.5 5.2 0.00 0.00 0.00 72 1013.4
20260903161823 72 158 3.5 5.2 0.00 0.00 0.00 70 1013.4
20260903161316 71 107 1.7 5.2 0.00 0.00 0.00 72 1013.4
20260903160810 72 220 3.5 6.1 0.00 0.00 0.00 71 1013.4
20260903160304 71 146 3.5 6.1 0.00 0.00 0.00 73 1013.4
20260903155757 71 89 4.3 5.2 0.00 0.00 0.00 72 1013.4
20260903155251 71 120 1.7 5.2 0.00 0.00 0.00 73 1013.4
20260903154744 71 169 1.7 5.2 0.00 0.00 0.00 74 1013.4
20260903154237 71 100 2.6 5.2 0.00 0.00 0.00 72 1013.4
20260903153731 71 128 2.6 5.2 0.00 0.00 0.00 74 1013.4
20260903153225 71 108 2.6 3.5 0.00 0.00 0.00 75 1013.4
20260903152717 69 142 2.6 3.5 0.00 0.00 0.00 77 1013.4
20260903152211 69 174 3.5 3.5 0.00 0.00 0.00 77 1013.4
20260903151705 70 136 1.7 5.2 0.00 0.00 0.00 76 1013.1
20260903150652 71 137 2.6 6.1 0.00 0.00 0.00 75 1013.1
20260903150145 70 299 0.0 1.7 0.00 0.00 0.00 76 1013.1
20260903145640 70 29 0.9 1.7 0.00 0.00 0.00 77 1013.1
20260903144626 69 162 1.7 3.5 0.00 0.00 0.00 78 1013.1
20260903144122 69 247 0.9 2.6 0.00 0.00 0.00 78 1013.1
20260903143613 69 280 0.0 3.5 0.00 0.00 0.00 79 1013.1
20260903143106 69 94 0.9 3.5 0.00 0.00 0.00 79 1013.1
20260903142600 69 111 1.7 2.6 0.00 0.00 0.00 79 1012.8
20260903141547 68 52 0.9 2.6 0.00 0.00 0.00 81 1012.8
20260903141041 68 50 0.0 2.6 0.00 0.00 0.00 82 1012.8
20260903140533 67 306 0.9 3.5 0.00 0.00 0.00 82 1012.8
20260903140027 67 164 0.9 3.5 0.00 0.00 0.00 82 1012.8